Regional Weather Roundup
Issued by NWS New Orleans/Baton Rouge, LA

Home | Current Version | Previous Version | Graphics & Text | Print | Product List | Glossary On
Versions: 1 2 3 4 5 6 7 8 9 10 11 12 13 14 15 16 17 18 19 20 21 22 23 24 25 26 27 28 29 30 31 32 33 34 35 36 37 38 39 40 41 42 43 44 45 46 47 48 49 50
709
ASUS44 KLIX 262205
RWRLIX
NEW ORLEANS REGIONAL WEATHER ROUNDUP
NATIONAL WEATHER SERVICE NEW ORLEANS LA
400 PM CST WED NOV 26 2014

NOTE: "FAIR" INDICATES FEW OR NO CLOUDS BELOW 12,000 FEET WITH NO
      SIGNIFICANT WEATHER AND/OR OBSTRUCTIONS TO VISIBILITY.
      SKY/WX - SKY CONDITION AND SIGNIFICANT WEATHER.
      TMP - AIR TEMPERATURE.     DP    - DEWPOINT TEMPERATURE.
      RH  - RELATIVE HUMIDITY.   PRES  - PRESSURE.
      HI  - HEAT INDEX.          WCI   - WIND CHILL INDEX.

*  THESE STATIONS ARE NOT NWS OR FAA STATIONS AND ARE NOT UNDER
   NWS QUALITY CONTROL.

LAZ038-040-048-061>063-065>067-069-262300-
SOUTHEAST LOUISIANA

CITY           SKY/WX    TMP DP  RH WIND       PRES   REMARKS
N.O. AUDUBON     N/A     64  41  42 MISG        N/A
N.O. INTL ARPT MOSUNNY   68  34  28 SW17G24   30.17F
N.O. LAKEFRONT SUNNY     67  38  34 SW15      30.17F
N.O. DOWNTOWN*   N/A     64  37  36 S9G16     30.18F
SLIDELL        SUNNY     64  37  36 SW7       30.16F
BATON ROUGE    SUNNY     68  33  27 W16       30.16R
BOOTHVILLE     SUNNY     62  45  53 SW9       30.23S
BELLE CHASSE   SUNNY     65  36  34 SW18      30.18S
BOGALUSA*        N/A     66  35  32 SW10      30.16S
NEW ROADS*       N/A     67  39  35 W13G20    30.16S
GONZALES*        N/A     68  40  35 SW9       30.17R
HAMMOND*       SUNNY     68  34  28 SW9       30.17R
HOUMA*         NOT AVBL
PORT FOURCHON* CLEAR     64  45  48 W10       30.25S

$$

MSZ070-080>082-262300-
SOUTHERN MISSISSIPPI

CITY           SKY/WX    TMP DP  RH WIND       PRES   REMARKS
MCCOMB         SUNNY     66  36  32 SW17G26   30.12S
GULFPORT       CLEAR     56  42  59 S7        30.17F
BILOXI         CLEAR     57  43  59 SW12      30.17F
PASCAGOULA     CLEAR     56  38  50 VRB7      30.18S
STENNIS ARPT*  SUNNY     63  34  34 S10       30.17F

$$

COASTAL OBSERVATIONS
LAKE AND NEARSHORE STATIONS

STATION/POSITION TIME  TEMP    WIND        PRES    WAVE
                       AIR SEA DIR/SP/G            HT/PER
                 (UTC) (F)     (DEG/KT/KT) (MB)    (FT/S)
PASCAGOULA       2200   58     220/ 10/ 13 1021.6
WAVELAND YACHT   2200   59     170/  6/  7 1020.8
GRAND ISLE       2200   63 60  260/ 10/ 14 1023.8
SOUTHWEST PASS   2200   66                 1023.7
NEW CANAL        2200   67 55  230/  9/ 13 1021.8
SHELL BEACH      2200   62 53  210/ 12/ 19 1021.8

OFFSHORE STATIONS

STATION/POSITION TIME  TEMP    WIND        PRES    WAVE
                       AIR SEA DIR/SP/G            HT/PER
                 (UTC) (F)     (DEG/KT/KT) (MB)    (FT/S)
64 S DAUPHIN ISL 2123   62 71  280/ 12/ 14 1024.1    2/ 4

$$




USA.gov is the U.S. government's official web portal to all federal, state and local government web resources and services.